Location: Schommer Observatory
(40.5200°N, 74.4500°W)
Time: 11:44:35
(UTC-04:00)

Envisat - Visible Passes

Search period start: 20 March 2019 00:00
Search period end: 30 March 2019 00:00
Orbit: 764 x 766 km, 98.2° (Epoch: 19 March)

Date Brightness Start Highest point End Pass type
(mag) Time Alt. Az. Time Alt. Az. Time Alt. Az.
20 Mar 5.9 20:54:46 10° SW 20:57:50 16° W 21:00:56 10° NW visible
21 Mar 4.7 20:16:10 10° SSW 20:20:48 36° W 20:25:28 10° NNW visible
22 Mar 3.2 19:38:52 10° S 19:43:57 81° WSW 19:49:03 10° NNW visible
23 Mar 5.6 20:42:47 10° SW 20:46:30 20° W 20:50:16 10° NW visible
24 Mar 4.2 20:04:41 10° S 20:09:31 45° W 20:14:25 10° NNW visible
25 Mar 6.2 21:10:54 10° WSW 21:12:21 11° W 21:13:47 10° WNW visible
26 Mar 5.3 20:31:01 10° SSW 20:35:12 26° W 20:39:26 10° NW visible
27 Mar 3.7 19:53:17 10° S 19:58:17 58° W 20:03:18 10° NNW visible
28 Mar 5.9 20:58:14 10° WSW 21:00:59 15° W 21:03:45 10° WNW visible
29 Mar 4.9 20:19:23 10° SSW 20:23:55 32° W 20:28:28 10° NNW visible
